Location: Unspecified
(0.0000°N, 0.0000°E)
Time: 19:43:31
(UTC+00:00)

THORAD DELTA 1 DEB - Pass Details

Date: 21 February 2026
Orbit: 1451 x 1738 km, 101.5° (Epoch: 9 March)

Event Time Altitude Azimuth Distance (km) Brightness Sun altitude
Rises 22:09:49 0° 202° (SSW) 4,686 ? -57.6°
Reaches altitude 10° 22:14:55 10° 228° (SW) 3,648 ? -58.8°
Maximum altitude 22:18:12 13° 252° (WSW) 3,401 ? -59.5°
Drops below altitude 10° 22:21:29 10° 275° (W) 3,593 ? -60.3°
Sets 22:26:28 0° 302° (WNW) 4,546 ? -61.5°
